30/04/2024 17:30:00,1.135
30/04/2024 17:45:00,1.143
30/04/2024 18:00:00,1.15
30/04/2024 18:15:00,1.152
30/04/2024 18:30:00,1.151
30/04/2024 18:45:00,1.154
30/04/2024 19:00:00,1.156
30/04/2024 19:15:00,1.152
30/04/2024 19:30:00,1.152
30/04/2024 19:45:00,1.151
30/04/2024 20:00:00,1.162
30/04/2024 20:15:00,1.155
30/04/2024 20:30:00,1.152
30/04/2024 20:45:00,1.149
30/04/2024 21:00:00,1.151
30/04/2024 21:15:00,1.157
30/04/2024 21:30:00,1.148
30/04/2024 21:45:00,1.15
30/04/2024 22:00:00,1.158
30/04/2024 22:15:00,1.164
30/04/2024 22:30:00,1.145
30/04/2024 22:45:00,1.141
30/04/2024 23:00:00,1.145
30/04/2024 23:15:00,1.148
30/04/2024 23:30:00,1.149
30/04/2024 23:45:00,1.155
01/05/2024 00:00:00,1.151
01/05/2024 00:15:00,1.148
01/05/2024 00:30:00,1.145
01/05/2024 00:45:00,1.15
01/05/2024 01:00:00,1.148
01/05/2024 01:15:00,1.153
01/05/2024 01:30:00,1.155
01/05/2024 01:45:00,1.148
01/05/2024 02:00:00,1.154
01/05/2024 02:15:00,1.154
01/05/2024 02:30:00,1.151
01/05/2024 02:45:00,1.149
01/05/2024 03:00:00,1.151
01/05/2024 03:15:00,1.153
01/05/2024 03:30:00,1.158
01/05/2024 03:45:00,1.157
01/05/2024 04:00:00,1.154
01/05/2024 04:15:00,1.154
01/05/2024 04:30:00,1.152
01/05/2024 04:45:00,1.153
01/05/2024 05:00:00,1.152
01/05/2024 05:15:00,1.155
01/05/2024 05:30:00,1.152
01/05/2024 05:45:00,1.152
01/05/2024 06:00:00,1.149
01/05/2024 06:15:00,1.153
01/05/2024 06:30:00,1.152
01/05/2024 06:45:00,1.155
01/05/2024 07:00:00,1.151
01/05/2024 07:15:00,1.153
01/05/2024 07:30:00,1.152
01/05/2024 07:45:00,1.157
01/05/2024 08:00:00,1.15
01/05/2024 08:15:00,1.15
01/05/2024 08:30:00,1.149
01/05/2024 08:45:00,1.154
01/05/2024 09:00:00,1.156
01/05/2024 09:15:00,1.158
01/05/2024 09:30:00,1.148
01/05/2024 09:45:00,1.151
01/05/2024 10:00:00,1.152
01/05/2024 10:15:00,1.156
01/05/2024 10:30:00,1.156
01/05/2024 10:45:00,1.144
01/05/2024 11:00:00,1.144
01/05/2024 11:15:00,1.143
01/05/2024 11:30:00,1.143
01/05/2024 11:45:00,1.145
01/05/2024 12:00:00,1.138
01/05/2024 12:15:00,1.14
01/05/2024 12:30:00,1.138
01/05/2024 12:45:00,1.145
01/05/2024 13:00:00,1.143
01/05/2024 13:15:00,1.145
01/05/2024 13:30:00,1.144
01/05/2024 13:45:00,1.143
01/05/2024 14:00:00,1.147
01/05/2024 14:15:00,1.148
01/05/2024 14:30:00,1.15
01/05/2024 14:45:00,1.146
01/05/2024 15:00:00,1.145
01/05/2024 15:15:00,1.143
01/05/2024 15:30:00,1.145
01/05/2024 15:45:00,1.142
01/05/2024 16:00:00,1.146
01/05/2024 16:15:00,1.144
01/05/2024 16:30:00,1.143
01/05/2024 16:45:00,1.143
01/05/2024 17:00:00,1.144
01/05/2024 17:15:00,1.14
01/05/2024 17:30:00,1.142
01/05/2024 17:45:00,1.143
01/05/2024 18:00:00,1.143
01/05/2024 18:15:00,1.143
01/05/2024 18:30:00,1.143
01/05/2024 18:45:00,1.143
01/05/2024 19:00:00,1.143
01/05/2024 19:15:00,1.142
01/05/2024 19:30:00,1.143
01/05/2024 19:45:00,1.145
01/05/2024 20:00:00,1.146
01/05/2024 20:15:00,1.148
01/05/2024 20:30:00,1.145
01/05/2024 20:45:00,1.156
01/05/2024 21:00:00,1.15
01/05/2024 21:15:00,1.151
01/05/2024 21:30:00,1.15
01/05/2024 21:45:00,1.15
01/05/2024 22:00:00,1.151
01/05/2024 22:15:00,1.146
01/05/2024 22:30:00,1.145
01/05/2024 22:45:00,1.145
01/05/2024 23:00:00,1.143
01/05/2024 23:15:00,1.143
01/05/2024 23:30:00,1.142
01/05/2024 23:45:00,1.145
02/05/2024 00:00:00,1.143
02/05/2024 00:15:00,1.142
02/05/2024 00:30:00,1.144
02/05/2024 00:45:00,1.139
02/05/2024 01:00:00,1.148
02/05/2024 01:15:00,1.141
02/05/2024 01:30:00,1.149
02/05/2024 01:45:00,1.149
02/05/2024 02:00:00,1.146
02/05/2024 02:15:00,1.146
02/05/2024 02:30:00,1.152
02/05/2024 02:45:00,1.152
02/05/2024 03:00:00,1.149
02/05/2024 03:15:00,1.15
02/05/2024 03:30:00,1.144
02/05/2024 03:45:00,1.148
02/05/2024 04:00:00,1.146
02/05/2024 04:15:00,1.15
02/05/2024 04:30:00,1.146
02/05/2024 04:45:00,1.145
02/05/2024 05:00:00,1.143
02/05/2024 05:15:00,1.143
02/05/2024 05:30:00,1.141
02/05/2024 05:45:00,1.139
02/05/2024 06:00:00,1.145
02/05/2024 06:15:00,1.149
02/05/2024 06:30:00,1.147
02/05/2024 06:45:00,1.147
02/05/2024 07:00:00,1.15
02/05/2024 07:15:00,1.152
02/05/2024 07:30:00,1.146
02/05/2024 07:45:00,1.154
02/05/2024 08:00:00,1.153
02/05/2024 08:15:00,1.149
02/05/2024 08:30:00,1.143
02/05/2024 08:45:00,1.144
02/05/2024 09:00:00,1.151
02/05/2024 09:15:00,1.149
02/05/2024 09:30:00,1.145
02/05/2024 09:45:00,1.148
02/05/2024 10:00:00,1.143
02/05/2024 10:15:00,1.145
02/05/2024 10:30:00,1.145
02/05/2024 10:45:00,1.148
02/05/2024 11:00:00,1.145
02/05/2024 11:15:00,1.148
02/05/2024 11:30:00,1.152
02/05/2024 11:45:00,1.146
02/05/2024 12:00:00,1.147
02/05/2024 12:15:00,1.142
02/05/2024 12:30:00,1.138
02/05/2024 12:45:00,1.145
02/05/2024 13:00:00,1.137
02/05/2024 13:15:00,1.146
02/05/2024 13:30:00,1.142
02/05/2024 13:45:00,1.145
02/05/2024 14:00:00,1.142
02/05/2024 14:15:00,1.143
02/05/2024 14:30:00,1.144
02/05/2024 14:45:00,1.143
02/05/2024 15:00:00,1.151
02/05/2024 15:15:00,1.16
02/05/2024 15:30:00,1.154
02/05/2024 15:45:00,1.151
02/05/2024 16:00:00,1.144
02/05/2024 16:15:00,1.149
02/05/2024 16:30:00,1.141
02/05/2024 16:45:00,1.16
02/05/2024 17:00:00,1.16
02/05/2024 17:15:00,1.158
02/05/2024 17:30:00,1.156
02/05/2024 17:45:00,1.143
02/05/2024 18:00:00,1.151
02/05/2024 18:15:00,1.153
02/05/2024 18:30:00,1.158
02/05/2024 18:45:00,1.149
02/05/2024 19:00:00,1.146
02/05/2024 19:15:00,1.134
02/05/2024 19:30:00,1.148
02/05/2024 19:45:00,1.14
02/05/2024 20:00:00,1.125
02/05/2024 20:15:00,1.148
02/05/2024 20:30:00,1.159
02/05/2024 20:45:00,1.164
02/05/2024 21:00:00,1.138
02/05/2024 21:15:00,1.142
02/05/2024 21:30:00,1.153
02/05/2024 21:45:00,1.163
02/05/2024 22:00:00,1.163
02/05/2024 22:15:00,1.149
02/05/2024 22:30:00,1.146
02/05/2024 22:45:00,1.133
02/05/2024 23:00:00,1.148
02/05/2024 23:15:00,1.149
02/05/2024 23:30:00,1.158
02/05/2024 23:45:00,1.151
03/05/2024 00:00:00,1.149
03/05/2024 00:15:00,1.146
03/05/2024 00:30:00,1.145
03/05/2024 00:45:00,1.146
03/05/2024 01:00:00,1.143
03/05/2024 01:15:00,1.146
03/05/2024 01:30:00,1.148
03/05/2024 01:45:00,1.149
03/05/2024 02:00:00,1.145
03/05/2024 02:15:00,1.151
03/05/2024 02:30:00,1.146
03/05/2024 02:45:00,1.151
03/05/2024 03:00:00,1.151
03/05/2024 03:15:00,1.151
03/05/2024 03:30:00,1.148
03/05/2024 03:45:00,1.148
03/05/2024 04:00:00,1.146
03/05/2024 04:15:00,1.15
03/05/2024 04:30:00,1.143
03/05/2024 04:45:00,1.138
03/05/2024 05:00:00,1.143
03/05/2024 05:15:00,1.153
03/05/2024 05:30:00,1.158
03/05/2024 05:45:00,1.146
03/05/2024 06:00:00,1.148
03/05/2024 06:15:00,1.14
03/05/2024 06:30:00,1.145
03/05/2024 06:45:00,1.148
03/05/2024 07:00:00,1.151
03/05/2024 07:15:00,1.151
03/05/2024 07:30:00,1.145
03/05/2024 07:45:00,1.151
03/05/2024 08:00:00,1.151
03/05/2024 08:15:00,1.155
03/05/2024 08:30:00,1.153
03/05/2024 08:45:00,1.153
03/05/2024 09:00:00,1.149
03/05/2024 09:15:00,1.148
03/05/2024 09:30:00,1.141
03/05/2024 09:45:00,1.145
03/05/2024 10:00:00,1.153
03/05/2024 10:15:00,1.159
03/05/2024 10:30:00,1.151
03/05/2024 10:45:00,1.138
03/05/2024 11:00:00,1.13
03/05/2024 11:15:00,1.137
03/05/2024 11:30:00,1.144
03/05/2024 11:45:00,1.146
03/05/2024 12:00:00,1.146
03/05/2024 12:15:00,1.143
03/05/2024 12:30:00,1.14
03/05/2024 12:45:00,1.149
03/05/2024 13:00:00,1.151
03/05/2024 13:15:00,1.146
03/05/2024 13:30:00,1.146
03/05/2024 13:45:00,1.144
03/05/2024 14:00:00,1.138
03/05/2024 14:15:00,1.133
03/05/2024 14:30:00,1.135
03/05/2024 14:45:00,1.127
03/05/2024 15:00:00,1.13
03/05/2024 15:15:00,1.14
03/05/2024 15:30:00,1.136
03/05/2024 15:45:00,1.134
03/05/2024 16:00:00,1.132
03/05/2024 16:15:00,1.13
03/05/2024 16:30:00,1.132
03/05/2024 16:45:00,1.132
03/05/2024 17:00:00,1.13
03/05/2024 17:15:00,1.128
03/05/2024 17:30:00,1.127
03/05/2024 17:45:00,1.124
03/05/2024 18:00:00,1.126
03/05/2024 18:15:00,1.124
03/05/2024 18:30:00,1.122
03/05/2024 18:45:00,1.12
03/05/2024 19:00:00,1.12
03/05/2024 19:15:00,1.118
03/05/2024 19:30:00,1.116
03/05/2024 19:45:00,1.116
03/05/2024 20:00:00,1.112
03/05/2024 20:15:00,1.111
03/05/2024 20:30:00,1.11
03/05/2024 20:45:00,1.111
03/05/2024 21:00:00,1.106
03/05/2024 21:15:00,1.104
03/05/2024 21:30:00,1.106
03/05/2024 21:45:00,1.103
03/05/2024 22:00:00,1.1
03/05/2024 22:15:00,1.1
03/05/2024 22:30:00,1.097
03/05/2024 22:45:00,1.097
03/05/2024 23:00:00,1.101
03/05/2024 23:15:00,1.104
03/05/2024 23:30:00,1.104
03/05/2024 23:45:00,1.102
04/05/2024 00:00:00,1.1
04/05/2024 00:15:00,1.1
04/05/2024 00:30:00,1.102
04/05/2024 00:45:00,1.103
04/05/2024 01:00:00,1.104
04/05/2024 01:15:00,1.104
04/05/2024 01:30:00,1.104
04/05/2024 01:45:00,1.1
04/05/2024 02:00:00,1.1
04/05/2024 02:15:00,1.103
04/05/2024 02:30:00,1.104
04/05/2024 02:45:00,1.105
04/05/2024 03:00:00,1.103
04/05/2024 03:15:00,1.101
04/05/2024 03:30:00,1.1
04/05/2024 03:45:00,1.102
04/05/2024 04:00:00,1.104
04/05/2024 04:15:00,1.108
04/05/2024 04:30:00,1.108
04/05/2024 04:45:00,1.106
04/05/2024 05:00:00,1.104
04/05/2024 05:15:00,1.104
04/05/2024 05:30:00,1.104
04/05/2024 05:45:00,1.104
04/05/2024 06:00:00,1.105
04/05/2024 06:15:00,1.104
04/05/2024 06:30:00,1.103
04/05/2024 06:45:00,1.102
04/05/2024 07:00:00,1.103
04/05/2024 07:15:00,1.102
04/05/2024 07:30:00,1.102
04/05/2024 07:45:00,1.102
04/05/2024 08:00:00,1.103
04/05/2024 08:15:00,1.104
04/05/2024 08:30:00,1.105
04/05/2024 08:45:00,1.105
04/05/2024 09:00:00,1.104
04/05/2024 09:15:00,1.104
04/05/2024 09:30:00,1.105
04/05/2024 09:45:00,1.105
04/05/2024 10:00:00,1.105
04/05/2024 10:15:00,1.104
04/05/2024 10:30:00,1.104
04/05/2024 10:45:00,1.104
04/05/2024 11:00:00,1.104
04/05/2024 11:15:00,1.102
04/05/2024 11:30:00,1.103
04/05/2024 11:45:00,1.103
04/05/2024 12:00:00,1.104
04/05/2024 12:15:00,1.104
04/05/2024 12:30:00,1.104
04/05/2024 12:45:00,1.104
04/05/2024 13:00:00,1.104
04/05/2024 13:15:00,1.104
04/05/2024 13:30:00,1.103
04/05/2024 13:45:00,1.104
04/05/2024 14:00:00,1.104
04/05/2024 14:15:00,1.104
04/05/2024 14:30:00,1.103
04/05/2024 14:45:00,1.104
04/05/2024 15:00:00,1.103
04/05/2024 15:15:00,1.103
04/05/2024 15:30:00,1.104
04/05/2024 15:45:00,1.104
04/05/2024 16:00:00,1.104
04/05/2024 16:15:00,1.104
04/05/2024 16:30:00,1.105
04/05/2024 16:45:00,1.105
04/05/2024 17:00:00,1.105
04/05/2024 17:15:00,1.105
04/05/2024 17:30:00,1.105
04/05/2024 17:45:00,1.104
04/05/2024 18:00:00,1.104
04/05/2024 18:15:00,1.104
04/05/2024 18:30:00,1.105
04/05/2024 18:45:00,1.105
04/05/2024 19:00:00,1.105
04/05/2024 19:15:00,1.105
04/05/2024 19:30:00,1.104
04/05/2024 19:45:00,1.105
04/05/2024 20:00:00,1.105
04/05/2024 20:15:00,1.105
04/05/2024 20:30:00,1.105
04/05/2024 20:45:00,1.106
04/05/2024 21:00:00,1.106
04/05/2024 21:15:00,1.107
04/05/2024 21:30:00,1.107
04/05/2024 21:45:00,1.107
04/05/2024 22:00:00,1.106
04/05/2024 22:15:00,1.106
04/05/2024 22:30:00,1.107
04/05/2024 22:45:00,1.107
04/05/2024 23:00:00,1.106
04/05/2024 23:15:00,1.107
04/05/2024 23:30:00,1.105
04/05/2024 23:45:00,1.105
05/05/2024 00:00:00,1.105
05/05/2024 00:15:00,1.105
05/05/2024 00:30:00,1.105
05/05/2024 00:45:00,1.105
05/05/2024 01:00:00,1.105
05/05/2024 01:15:00,1.106
05/05/2024 01:30:00,1.106
05/05/2024 01:45:00,1.105
05/05/2024 02:00:00,1.105
05/05/2024 02:15:00,1.106
05/05/2024 02:30:00,1.106
05/05/2024 02:45:00,1.107
05/05/2024 03:00:00,1.107
05/05/2024 03:15:00,1.107
05/05/2024 03:30:00,1.107
05/05/2024 03:45:00,1.106
05/05/2024 04:00:00,1.108
05/05/2024 04:15:00,1.108
05/05/2024 04:30:00,1.108
05/05/2024 04:45:00,1.107
05/05/2024 05:00:00,1.106
05/05/2024 05:15:00,1.106
05/05/2024 05:30:00,1.106
05/05/2024 05:45:00,1.107
05/05/2024 06:00:00,1.107
05/05/2024 06:15:00,1.108
05/05/2024 06:30:00,1.107
05/05/2024 06:45:00,1.107
05/05/2024 07:00:00,1.107
05/05/2024 07:15:00,1.107
05/05/2024 07:30:00,1.107
05/05/2024 07:45:00,1.108
05/05/2024 08:00:00,1.108
05/05/2024 08:15:00,1.107
05/05/2024 08:30:00,1.107
05/05/2024 08:45:00,1.108
05/05/2024 09:00:00,1.108
05/05/2024 09:15:00,1.107
05/05/2024 09:30:00,1.107
05/05/2024 09:45:00,1.107
05/05/2024 10:00:00,1.106
05/05/2024 10:15:00,1.107
05/05/2024 10:30:00,1.107
05/05/2024 10:45:00,1.108
05/05/2024 11:00:00,1.108
05/05/2024 11:15:00,1.107
05/05/2024 11:30:00,1.107
05/05/2024 11:45:00,1.106
05/05/2024 12:00:00,1.107
05/05/2024 12:15:00,1.107
05/05/2024 12:30:00,1.107
05/05/2024 12:45:00,1.106
05/05/2024 13:00:00,1.106
05/05/2024 13:15:00,1.106
05/05/2024 13:30:00,1.106
05/05/2024 13:45:00,1.105
05/05/2024 14:00:00,1.105
05/05/2024 14:15:00,1.106
05/05/2024 14:30:00,1.106
05/05/2024 14:45:00,1.106
05/05/2024 15:00:00,1.107
05/05/2024 15:15:00,1.107
05/05/2024 15:30:00,1.107
05/05/2024 15:45:00,1.106
05/05/2024 16:00:00,1.106
05/05/2024 16:15:00,1.105
05/05/2024 16:30:00,1.107
05/05/2024 16:45:00,1.107
05/05/2024 17:00:00,1.107
